Change the Weather History Date:

Thursday, December 6, 2012

  Actual Average Record
Temperature  
Mean Temperature 28 °F 28 °F  
Max Temperature 36 °F 35 °F 62 °F (2001)
Min Temperature 19 °F 22 °F -3 °F (1926)
Degree Days  
Heating Degree Days 37 37  
Month to date heating degree days 164 215  
Since 1 July heating degree days 1865 2038  
Moisture  
Dew Point 24 °F    
Average Humidity 81    
Maximum Humidity 92    
Minimum Humidity 69    
Precipitation  
Precipitation 0.00 in 0.06 in 0.68 in (1998)
Month to date precipitation 0.89 0.38  
Year to date precipitation 25.94 26.79  
Snow  
Snow 0.00 in 0.60 in 7.40 in (1962)
Month to date snowfall T 3.4  
Since 1 July snowfall 2.2 11.5  
Snow Depth 0.00 in    
Sea Level Pressure  
Sea Level Pressure 30.12 in    
Wind  
Wind Speed 10 mph (South)    
Max Wind Speed 20 mph    
Max Gust Speed 25 mph    
Visibility 10 miles    
Events      
T = Trace of Precipitation, MM = Missing Value Source: NWS Daily Summary

Daily Weather History Graph

Daily Weather History Graph

Search for Another Location

Airport or City:

Trip Planner

Search our weather history database for the weather conditions in past years. The results will help you decide how hot, cold, wet, or windy it might be!

Date:

Astronomy

Dec. 06, 2012 Rise Set
Actual Time 7:58 AM EST 4:52 PM EST
Civil Twilight 7:24 AM EST 5:26 PM EST
Nautical Twilight 6:47 AM EST 6:03 PM EST
Astronomical Twilight 6:12 AM EST 6:38 PM EST
Moon No Moon Rise 12:35 PM EST (12/6)
Length of Visible Light 10h 01m
Length of Day
8h 54m
Waning Gibbous, 49% of the Moon is Illuminated
Dec 6
Waning Gibbous
Dec 13
New
Dec 20
First Quarter
Dec 28
Full
Jan 4
Last Quarter

Hourly Weather History & Observations

Time (EST) Temp. Windchill Dew Point Humidity Pressure Visibility Wind Dir Wind Speed Gust Speed Precip Events Conditions
12:54 AM 19.9 °F 12.1 °F 16.0 °F 85% 30.34 in 10.0 mi SSE 5.8 mph - N/A   Clear
1:54 AM 21.9 °F - 19.0 °F 89% 30.33 in 10.0 mi Calm Calm - N/A   Clear
2:54 AM 23.0 °F 17.0 °F 19.9 °F 88% 30.33 in 10.0 mi SSE 4.6 mph - N/A   Clear
3:54 AM 24.1 °F 17.0 °F 21.0 °F 88% 30.32 in 10.0 mi SSE 5.8 mph - N/A   Clear
4:54 AM 26.1 °F 16.8 °F 21.9 °F 84% 30.28 in 10.0 mi SE 9.2 mph - N/A   Clear
5:54 AM 26.1 °F 18.4 °F 21.9 °F 84% 30.27 in 10.0 mi SSE 6.9 mph - N/A   Clear
6:54 AM 24.1 °F 18.2 °F 21.0 °F 88% 30.26 in 10.0 mi SSE 4.6 mph - N/A   Clear
7:54 AM 26.1 °F 17.6 °F 23.0 °F 88% 30.23 in 10.0 mi SSE 8.1 mph - N/A   Clear
8:00 AM 26.6 °F 18.2 °F 23.0 °F 86% 30.19 in 10.0 mi SSE 8.1 mph - N/A   Overcast
8:54 AM 28.9 °F 20.4 °F 25.0 °F 85% 30.21 in 10.0 mi South 9.2 mph - N/A   Mostly Cloudy
9:54 AM 30.9 °F 20.7 °F 25.0 °F 79% 30.19 in 10.0 mi South 13.8 mph - N/A   Overcast
10:15 AM 30.2 °F 18.9 °F 26.6 °F 86% 30.14 in 10.0 mi South 16.1 mph 23.0 mph N/A   Overcast
10:54 AM 32.0 °F 20.5 °F 26.1 °F 79% 30.16 in 10.0 mi South 18.4 mph 21.9 mph N/A   Overcast
11:01 AM 32.0 °F 22.1 °F 26.6 °F 80% 30.11 in 10.0 mi South 13.8 mph 21.9 mph N/A   Overcast
11:54 AM 33.1 °F 23.4 °F 26.1 °F 75% 30.11 in 10.0 mi South 13.8 mph - N/A   Overcast
12:54 PM 34.0 °F 25.5 °F 26.1 °F 73% 30.07 in 10.0 mi South 11.5 mph 25.3 mph N/A   Overcast
1:54 PM 34.0 °F 24.6 °F 25.0 °F 70% 30.04 in 10.0 mi South 13.8 mph - N/A   Overcast
2:54 PM 34.0 °F 24.6 °F 24.1 °F 67% 30.01 in 10.0 mi South 13.8 mph - N/A   Overcast
3:54 PM 34.0 °F 26.0 °F 25.0 °F 70% 30.00 in 10.0 mi South 10.4 mph - N/A   Overcast
4:54 PM 34.0 °F 28.0 °F 25.0 °F 70% 29.99 in 10.0 mi SSW 6.9 mph - N/A   Overcast
5:54 PM 33.1 °F 24.4 °F 25.0 °F 72% 29.96 in 10.0 mi SSE 11.5 mph - N/A   Overcast
6:54 PM 34.0 °F 25.5 °F 26.1 °F 73% 29.98 in 10.0 mi SSW 11.5 mph - N/A   Overcast
7:54 PM 35.1 °F 25.5 °F 26.1 °F 70% 29.93 in 10.0 mi South 15.0 mph - N/A   Overcast
8:54 PM 35.1 °F 26.4 °F 26.1 °F 70% 29.92 in 10.0 mi South 12.7 mph 19.6 mph N/A   Overcast
9:54 PM 35.1 °F 29.3 °F 26.1 °F 70% 29.90 in 10.0 mi SSW 6.9 mph - N/A   Scattered Clouds
10:54 PM 36.0 °F 29.6 °F 26.1 °F 67% 29.89 in 10.0 mi SSW 8.1 mph - N/A   Mostly Cloudy
11:54 PM 36.0 °F 29.0 °F 27.0 °F 70% 29.89 in 10.0 mi SW 9.2 mph - N/A   Overcast